User: anonymous   Login
Location: Godiavel Galaoual
(15.2485°N, 12.6604°W)
Time: 14:39:01
(UTC+00:00)
Language:

CUBEBUG 2 - Orbit

View from above orbital plane
View from above orbital plane
View from above satellite
View from above satellite

Ground track
Ground track

The orbit data is extracted from the following two-line orbital elements,

1 39440U 13066AA  21214.33940079  .00000283  00000-0  45678-4 0  9998
2 39440  97.6791 181.4283 0081369  86.6742 274.3773 14.76278397413193
Epoch (UTC): 02 August 2021 08:08:44
Eccentricity: 0.0081369
inclination: 97.6791°
perigee height: 584 km
apogee height: 698 km
right ascension of ascending node: 181.4283°
argument of perigee: 86.6742°
revolutions per day: 14.76278397
mean anomaly at epoch: 274.3773°
orbit number at epoch: 41319

The dashed part of the orbit path shows where the satellite is in the earth's shadow,  

DLR